www.pogodaiklimat.ru

Погода и климат >> Архив погоды >> Индия >> Kota


ПОГОДА в Kota

  • Прогноз погоды в Kota
  • Монитор погоды в Kota
  • Климат города

АРХИВ ПОГОДЫ в Kota

Время (UTC), дата Ветер
(напр.,м/с)
 
Видим.   Явления Облачность Т
(С)
Тd
(С)
f
(%)
Тe
(С)
Тes
(С)
Комфортность P
(гПа)
Po
(гПа)
Тmin
(С)
Tmax
(С)
R
(мм)
R24
(мм)
S
(см)
03 15.09 штиль 0 2000 м мгла 3/0
[Ci fib]
+29.0 +24.2 75 +40 +47 очень
душно
1006.7 1007.0 +25.7 +33.3
06 15.09 В 1 2000 м мгла 6/3 600 м
[Cu hum Ac trans Ci fib]
+33.0 +25.1 63 +47 +58 опасность
перегрева
1006.1 1006.0
09 15.09 СВ 2 4000 м мгла 6/4 600 м
[Cu hum Ac trans]
+33.6 +22.9 54 +44 +50 опасность
перегрева
1003.6 1004.0
12 15.09 С 1 4000 м мгла 8/3 600 м
[Sc Ac trans Ci fib]
+33.2 +22.7 54 +43 +44 опасность
перегрева
1002.0 1002.0 +34.3
15 15.09 ЮЗ 2 4000 м 8/5 600 м
[Sc Ac trans]
+29.2 +23.4 71 +40 +40 очень
душно
1004.4 1004.0
18 15.09 З 3 4000 м 6/3 600 м
[Sc Ac trans]
+28.4 +23.5 75 +39 +39 очень
душно
1005.0 1005.0
21 15.09 З 1 4000 м 4/3 600 м
[Sc Ac trans]
+27.4 +22.4 74 +36 +36 очень
душно
1004.1 1004.0
00 16.09 З 1 4000 м 3/3 600 м
[Sc Ac trans]
+27.4 +22.4 74 +36 +36 очень
душно
1004.1 1004.0
03 16.09 штиль 0 4000 м мгла 9/5 600 м
[Sc Ac trans]
+28.6 +23.4 73 +39 +40 очень
душно
1006.0 1006.0 +26.1 +34.3
06 16.09 СВ 1 4000 м мгла 6/0
[Ci sp]
+33.4 +23.3 56 +44 +62 опасность
перегрева
1005.3 1005.0
09 16.09 СВ 1 2000 м мгла 5/3 600 м
[Cu hum Ac trans]
+35.4 +20.0 41 +41 +51 опасность
перегрева
1001.9 1002.0
12 16.09 СЗ 1 2000 м гроза без осадков 9/6 600 м
[Cb cap Ac trans Ci fib]
+33.2 +23.1 55 +43 +44 опасность
перегрева
1000.8 1001.0 +35.8
15 16.09 штиль 0 4000 м слабый дождь 9/6 600 м
[Sc As op]
+30.6 +24.0 68 +42 +42 опасность
перегрева
1002.6 1003.0 0.0
18 16.09 С 1 4000 м слабый дождь {гроза} 10/8 600 м
[Sc As op]
+27.4 +26.3 94 +42 +42 опасность
перегрева
1005.7 1006.0 14
21 16.09 штиль 0 4000 м 10/8 600 м
[Sc As op]
+27.0 +25.6 92 +40 +40 очень
душно
1004.3 1004.0 14
00 17.09 С 1 4000 м 10/6 600 м
[Sc As op]
+27.4 +24.2 83 +38 +38 очень
душно
1004.9 1005.0 14
03 17.09 штиль 0 2000 м мгла 10/6 600 м
[Sc As trans]
+27.0 +24.1 84 +37 +38 очень
душно
1006.0 1006.0 +25.2 +35.8 13
06 17.09 штиль 0 2000 м мгла 9/6 600 м
[Sc As trans]
+30.4 +22.5 63 +40 +45 очень
душно
1005.2 1005.0
09 17.09 С 1 4000 м 6/3 600 м
[Sc diur, vesp Ac trans Ci fib]
+33.2 +23.1 55 +43 +52 опасность
перегрева
1003.0 1003.0
12 17.09 нст 1 4000 м 5/3 600 м
[Sc Ac trans]
+33.2 +22.7 54 +43 +44 опасность
перегрева
1001.4 1001.0 +33.6
15 17.09 штиль 0 4000 м 5/3 600 м
[Sc Ac trans]
+30.0 +22.7 65 +40 +40 очень
душно
1003.4 1003.0
18 17.09 штиль 0 4000 м 4/3 600 м
[Sc Ac trans]
+29.2 +23.1 70 +39 +39 очень
душно
1004.1 1004.0
21 17.09 С 1 4000 м 4/4 600 м
[Sc]
+28.4 +22.2 69 +37 +37 очень
душно
1003.2 1003.0
00 18.09 штиль 0 4000 м 3/3 600 м
[Sc]
+27.8 +22.2 72 +36 +36 очень
душно
1003.9 1004.0
03 18.09 ЮЗ 1 4000 м 8/5 600 м
[Cu Sc Ac trans Ci fib]
+30.0 +26.4 81 +46 +48 опасность
перегрева
1005.2 1005.0 +25.4 +33.6
06 18.09 ЮВ 1 4000 м 8/3 600 м
[Sc diur, vesp Ac trans Ci fib]
+32.8 +20.9 50 +40 +49 очень
душно
1005.2 1005.0
09 18.09 С 2 4000 м 5/0
[Ac trans Ci fib]
+35.4 +19.8 40 +41 +52 опасность
перегрева
1001.9 1002.0
12 18.09 СЗ 1 4000 м 5/0
[Ci fib]
+34.6 +19.5 41 +40 +41 очень
душно
1001.2 1001.0 +35.6
15 18.09 штиль 0 4000 м 1/0
[Ci fib]
+30.0 +20.0 55 +36 +36 очень
душно
1002.5 1003.0
18 18.09 штиль 0 4000 м 3/0
[Ci fib]
+28.6 +20.4 61 +35 +35 очень
душно
1003.5 1004.0
21 18.09 штиль 0 4000 м 5/0
[Ci fib]
+27.6 +20.6 66 +34 +34 очень
душно
1002.6 1003.0
00 19.09 штиль 0 4000 м 3/0
[Ci fib]
+27.2 +21.2 70 +34 +34 очень
душно
1003.2 1003.0
03 19.09 штиль 0 4000 м 4/0
[Ci fib]
+29.0 +19.9 58 +35 +41 очень
душно
1004.7 1005.0 +25.7 +35.6
06 19.09 С 1 4000 м 1/0
[Ci fib]
+33.4 +20.2 46 +40 +59 опасность
солнечного
удара
1003.6 1004.0
09 19.09 С 1 4000 м 1/1 600 м
[Sc]
+36.0 +17.1 33 +39 +54 опасность
солнечного
удара
1001.5 1002.0
12 19.09 штиль 0 4000 м 1/1 600 м
[Sc]
+36.4 +15.5 29 +38 +39 очень
душно
999.6 1000.0 +36.9
15 19.09 штиль 0 4000 м ясно +29.0 +18.8 54 +34 +34 очень
душно
1001.7 1002.0
18 19.09 З 1 4000 м ясно +28.6 +19.7 59 +35 +35 очень
душно
1001.8 1002.0
00 20.09 штиль 0 4000 м ясно +26.2 +20.1 69 +32 +32 очень
душно
1002.1 1002.0
03 20.09 штиль 0 4000 м мгла 3/0
[Ci fib]
+30.6 +21.7 59 +39 +45 очень
душно
1003.4 1003.0 +25.6 +36.9
06 20.09 СВ 1 4000 м мгла 3/3 600 м
[Cu hum]
+34.0 +24.0 56 +46 +60 опасность
перегрева
1003.0 1003.0
09 20.09 С 1 4000 м мгла 3/3 600 м
[Cu hum]
+36.2 +19.4 37 +41 +53 опасность
перегрева
999.4 999.0
12 20.09 С 1 4000 м 3/3 600 м
[Cu hum]
+36.0 +19.9 39 +42 +42 опасность
перегрева
997.5 998.0 +37.2
15 20.09 СЗ 1 4000 м 1/0
[Ci fib]
+32.2 +20.5 50 +39 +39 очень
душно
1000.5 1001.0
18 20.09 ЮВ 3 4000 м 4/0
[Ac trans Ci fib]
+28.6 +20.5 62 +35 +35 очень
душно
1002.3 1002.0
21 20.09 ЮЗ 1 4000 м 5/4 600 м
[Sc diur, vesp Ac trans]
+27.4 +22.4 74 +36 +36 очень
душно
1001.4 1001.0
00 21.09 ЮЗ 1 4000 м 4/0
[Ac trans Ci fib]
+27.0 +23.5 81 +37 +37 очень
душно
1002.0 1002.0
03 21.09 С 1 4000 м 6/3 600 м
[Sc Ac trans]
+29.0 +23.2 71 +39 +42 очень
душно
1002.8 1003.0 +26.3 +37.2
06 21.09 ЮЗ 1 4000 м 4/0
[Ac trans Ci fib]
+27.0 +23.5 81 +37 +52 опасность
солнечного
удара
1002.0 1002.0
09 21.09 штиль 0 2000 м мгла 9/6
[Sc As trans]
+32.0 +24.0 63 +44 +48 опасность
перегрева
1000.6 1001.0
12 21.09 штиль 0 2000 м мгла 9/6
[Sc As trans]
+31.8 +22.8 59 +42 +42 опасность
перегрева
999.4 999.0 +32.4
15 21.09 штиль 0 4000 м 9/6 600 м
[Sc As trans]
+30.0 +24.0 70 +41 +41 опасность
перегрева
1001.3 1001.0
18 21.09 ЮЗ 1 4000 м 8/5 600 м
[Sc Ac trans]
+28.0 +24.3 80 +39 +39 очень
душно
1003.1 1003.0
21 21.09 З 1 4000 м 8/4 600 м
[Sc Ac trans]
+27.6 +23.8 80 +38 +38 очень
душно
1001.5 1002.0
00 22.09 штиль 0 4000 м слабый дождь 10/8 600 м
[Sc As op]
+26.6 +24.6 89 +38 +38 очень
душно
1002.9 1003.0 0.0

 

Местоположение метеостанции Kota (Rajasthan, Индия): широта 25.15 долгота 75.85 высота над уровнем моря 274 м.

В архиве по умолчанию представлена погода в Kota за последнюю неделю. Архивные данные за месяц целиком и за предыдущие месяцы, начиная с января 2011 года, Вы можете получить, выбрав интересующий диапазон дат из раскрывающегося списка и нажав кнопку "Ввод!".

Внимание! Время в таблицах - всемирное. Для получения местного времени необходимо прибавить поправку, которая в Kota равна 5.5 ч.

Смотрите также архив погоды в соседних городах и на ближайших метеорологических станциях:

Погода в Sheopur (Madhya Pradesh, Индия) (101 км)
Погода в Bhilwara (Rajasthan, Индия) (125 км)
Погода в Chittorgarh (Rajasthan, Индия) (127 км)
Погода в Rajgarh (Madhya Pradesh, Индия) (155 км)
Погода в Guna (Madhya Pradesh, Индия) (158 км)
Погода в Shivpuri (Madhya Pradesh, Индия) (182 км)
Погода в Jaipur (Rajasthan, Индия) (186 км)
Погода в Ajmer (Rajasthan, Индия) (190 км)
Погода в Shajapur (Madhya Pradesh, Индия) (197 км)
Погода в Udaipur Dabok (Rajasthan, Индия) (207 км)

Пояснения к столбцам:

Ветер - указаны скорость ветра в м/с - средняя за 10 мин, порывы в срок и между сроками (в фигурных скобках) и направление, откуда дует ветер: С - северный, СВ - северо-восточный, В - восточный, ЮВ - юго-восточный, Ю - южный, ЮЗ - юго-западный, З - западный, СЗ - северо-западный.
Видимость - горизонтальная дальность видимости в метрах или километрах. При видимости от 1 до 10 км при отсутствии осадков обычно наблюдается дымка, при ухудшении видимости до 1 км и менее - туман. В сухую погоду видимость может ухудшаться дымом, пылью или мглою.
Явления - указаны атмосферные явления, наблюдавшиеся в срок или в последний час перед сроком; фигурными скобками обозначены явления, наблюдавшиеся между сроками (за 1-3 часа до срока); квадратными скобками обозначены град или гололедные отложения с указанием их диаметра в мм.
Облачность - указаны через наклонную черту общая и нижняя облачность в баллах и высота нижней границы облаков в метрах; квадратными скобками обозначены формы облаков: Ci - перистые, Cs - перисто-слоистые, Cc - перисто-кучевые, Ac - высококучевые, As - высокослоистые, Sc - слоисто-кучевые, Ns - слоисто-дождевые, Cu - кучевые, Cb - кучево-дождевые. Подробнее классификацию облаков см. в Атласе облаков (PDF).
T - Температура воздуха - температура, измеренная на высоте 2 м над землей.
Td - Температура точки росы - температура, при понижении до которой содержащийся в воздухе водяной пар достигнет насыщения.
f - Относительная влажность воздуха - влажноcть воздуха, измеренная на высоте 2 м над землей.
Te - Эффективная температура - температура, которую ощущает одетый по сезону человек в тени. Характеристика душности погоды. При расчете учитывается влияние влажности воздуха и скорости ветра на теплоощущения человека.
Tes - Эффективная температура на солнце - температура, которую ощущает человек, с поправкой на солнечный нагрев. Характеристика знойности погоды. Зависит от высоты солнца над горизонтом, облачности и скорости ветра. Ночью, в пасмурную погоду, а также при ветре 12 м/с и более поправка равна нулю.
P - Атмосферное давление - приведенное к уровню моря атмосферное давление.
Po - Атмосферное давление - измеренное на уровне метеостанции атмосферное давление.
Tmin - Минимальная температура - минимум температуры воздуха на высоте 2 м над землей.
Tmax - Максимальная температура - максимум температуры воздуха на высоте 2 м над землей.
R - Количество осадков - Количество выпавших осадков за период времени, мм. При наведении курсора мыши на число - период времени, за который выпало указанное количество осадков.
R24 - Количество осадков - Количество выпавших осадков за 24 часа, мм.
S - Снежный покров - Высота снежного покрова, см. При наведении курсора мыши на число - состояние снежного покрова и степень покрытия местности в баллах.